Total_Precipitation_Accumulation
3.38 3.31 3.28 3.30 3.21 3.37 3.54 3.62 3.51 3.40 3.29 3.14 2.91 2.89 3.05 3.16 3.31 3.35 3.48 3.55 3.35 3.59 4.23 4.64 4.70 4.78 4.77 4.71 4.59 4.49 4.32 4.33 4.16 3.75 3.26 2.96 2.85 2.74 2.68 2.61 2.58 2.52 2.47
3.71 3.70 3.76 3.72 3.50 3.52 3.67 3.84 3.76 3.64 3.40 3.24 3.08 3.05 3.09 3.08 3.18 3.40 3.44 3.50 3.43 3.46 3.96 4.51 4.93 5.18 5.20 5.21 5.01 4.66 4.37 4.23 4.18 4.03 3.75 3.36 3.16 3.04 3.01 2.75 2.62 2.51 2.42
4.04 4.07 4.25 4.24 3.96 3.92 4.02 4.14 4.16 4.03 3.62 3.35 3.33 3.37 3.34 3.32 3.18 3.20 3.37 3.45 3.36 3.50 3.81 4.02 4.43 4.79 5.09 5.21 5.29 5.05 4.72 4.38 4.17 4.08 4.05 3.80 3.50 3.36 3.37 3.09 2.90 2.70 2.50
4.09 4.29 4.28 4.12 4.12 4.27 4.50 4.67 4.58 4.52 4.31 4.09 3.93 3.62 3.37 3.27 3.14 3.26 3.22 3.24 3.53 3.47 3.57 3.51 3.75 4.17 4.56 4.91 5.20 5.25 5.01 4.65 4.31 4.09 4.04 3.90 3.62 3.36 3.29 3.27 3.17 2.99 2.78
4.18 4.50 4.61 4.60 4.51 4.61 4.74 4.51 4.67 4.62 4.78 4.62 4.09 3.79 3.50 3.31 3.23 3.21 3.26 3.23 3.35 3.49 3.48 3.36 3.48 3.75 4.01 4.41 4.71 5.07 5.23 4.99 4.64 4.32 4.19 4.11 3.85 3.56 3.34 3.26 3.20 3.09 2.99
4.51 4.79 4.80 4.86 4.92 5.10 5.03 4.93 4.97 4.78 4.64 4.58 4.12 3.90 3.66 3.32 3.25 3.19 3.08 3.08 3.12 2.97 3.07 3.14 3.30 3.23 3.55 3.90 4.24 4.68 5.25 5.41 5.23 4.87 4.67 4.58 4.24 3.76 3.39 3.25 3.22 3.19 3.17
5.08 5.25 5.33 5.31 5.15 5.14 5.08 4.97 4.94 4.87 4.54 4.36 4.43 4.04 3.52 3.06 2.82 2.74 2.73 2.82 2.75 2.69 2.80 3.09 3.30 3.20 3.09 3.32 3.73 4.30 5.09 5.58 5.62 5.39 5.07 4.87 4.41 3.87 3.53 3.33 3.18 3.09 3.02
5.81 5.68 5.77 5.47 5.18 5.11 5.03 4.93 4.83 4.69 4.28 4.14 4.23 4.28 3.73 3.27 2.70 2.31 2.37 2.39 2.44 2.56 2.62 2.59 2.83 2.90 2.79 2.89 2.86 3.35 3.92 4.57 5.10 5.35 5.24 4.91 4.54 4.09 3.73 3.50 3.39 3.33 3.20
5.89 5.71 5.51 5.41 5.26 5.06 4.89 4.87 4.79 4.70 4.40 4.16 4.08 4.35 4.14 3.61 3.01 2.64 2.32 2.29 2.37 2.47 2.42 2.37 2.44 2.50 2.53 2.65 2.65 2.83 3.14 3.55 4.25 4.78 4.97 4.76 4.43 4.07 3.83 3.73 3.69 3.75 3.72
5.52 5.18 5.02 5.16 5.11 4.86 4.63 4.29 4.19 4.23 4.24 4.05 3.93 3.74 3.67 3.56 3.39 3.07 2.69 2.60 2.60 2.56 2.42 2.33 2.40 2.54 2.58 2.72 2.72 2.61 2.63 2.76 3.24 3.87 4.46 4.54 4.34 4.06 3.90 3.99 4.06 4.17 4.21
4.86 4.62 4.61 4.78 4.75 4.50 4.25 3.96 3.81 3.63 3.61 3.73 3.77 3.63 3.48 3.34 3.11 3.05 2.90 2.72 2.63 2.52 2.36 2.29 2.39 2.52 2.56 2.56 2.53 2.40 2.41 2.42 2.66 3.02 3.56 4.06 4.22 4.22 4.19 4.22 4.28 4.32 4.37
4.28 3.96 3.82 3.81 3.80 3.65 3.50 3.45 3.44 3.37 3.34 3.42 3.45 3.37 3.29 3.21 3.11 3.14 3.01 2.76 2.71 2.66 2.50 2.31 2.20 2.21 2.26 2.41 2.37 2.47 2.30 2.30 2.40 2.56 2.72 3.08 3.46 3.77 4.02 4.17 4.15 4.23 4.36
3.61 3.28 3.12 3.07 3.12 3.13 3.04 3.06 3.12 3.13 3.08 3.15 3.11 3.06 3.01 2.85 2.86 3.04 3.17 3.01 2.88 2.69 2.62 2.45 2.25 2.33 2.23 2.32 2.52 2.55 2.32 2.20 2.26 2.30 2.26 2.34 2.67 3.05 3.24 3.48 3.69 3.82 4.01
2.94 2.86 2.80 2.65 2.64 2.72 2.72 2.89 2.84 2.75 2.75 2.78 2.69 2.81 2.81 2.67 2.72 2.85 3.04 3.35 3.39 3.05 2.74 2.53 2.34 2.32 2.36 2.33 2.46 2.50 2.18 2.01 1.96 2.06 2.10 2.09 2.18 2.38 2.57 2.68 2.87 3.07 3.29
2.48 2.47 2.45 2.40 2.30 2.28 2.30 2.35 2.33 2.37 2.46 2.40 2.41 2.45 2.42 2.45 2.56 2.65 2.88 3.26 3.55 3.42 3.04 2.72 2.60 2.47 2.38 2.38 2.54 2.25 2.08 2.02 1.85 1.79 1.82 1.81 1.86 1.99 2.14 2.17 2.17 2.29 2.43
2.20 2.20 2.11 2.07 2.08 2.11 2.08 2.04 2.03 2.10 2.16 2.17 2.23 2.22 2.15 2.15 2.32 2.42 2.55 2.74 3.04 3.31 3.06 2.50 2.42 2.34 2.33 2.17 2.44 2.18 2.11 2.09 1.79 1.60 1.54 1.56 1.62 1.70 1.77 1.83 1.86 1.90 1.98
2.01 1.94 1.94 1.95 1.88 1.86 1.93 1.99 1.98 2.03 2.12 2.10 2.02 2.02 2.03 2.14 2.28 2.27 2.33 2.46 2.62 2.87 2.99 2.65 2.45 2.36 2.34 2.37 2.39 2.24 2.07 1.94 1.72 1.61 1.42 1.38 1.41 1.51 1.53 1.56 1.63 1.69 1.73
1.87 1.87 1.88 1.84 1.70 1.66 1.84 1.92 1.90 1.90 2.00 1.96 1.91 1.99 2.00 2.04 2.12 2.16 2.26 2.36 2.53 2.75 2.85 2.87 2.68 2.44 2.35 2.33 2.40 2.34 2.02 1.81 1.70 1.71 1.50 1.37 1.28 1.28 1.39 1.39 1.42 1.52 1.62
1.81 1.78 1.68 1.67 1.63 1.62 1.73 1.76 1.79 1.78 1.80 1.85 1.87 1.93 1.93 2.00 2.02 2.07 2.14 2.19 2.33 2.44 2.64 2.71 2.61 2.48 2.36 2.25 2.44 2.25 2.09 2.22 1.80 1.65 1.52 1.39 1.28 1.24 1.46 1.52 1.31 1.31 1.39
1.72 1.70 1.62 1.58 1.59 1.60 1.52 1.49 1.54 1.65 1.73 1.69 1.62 1.70 1.75 1.81 1.86 1.98 1.95 2.02 2.13 2.31 2.50 2.58 2.43 2.27 2.20 2.24 2.39 2.37 2.28 2.20 2.02 1.63 1.59 1.47 1.36 1.34 1.65 2.17 1.66 1.35 1.33
1.50 1.57 1.51 1.45 1.47 1.42 1.29 1.32 1.37 1.38 1.51 1.52 1.48 1.49 1.51 1.55 1.56 1.58 1.54 1.75 1.98 2.18 2.31 2.42 2.32 2.22 2.17 2.31 2.29 2.21 2.20 2.17 2.01 1.80 1.79 1.60 1.68 1.92 2.40 2.98 2.49 1.86 1.63
1.57 1.53 1.50 1.46 1.38 1.25 1.23 1.17 1.18 1.23 1.33 1.46 1.54 1.50 1.38 1.32 1.26 1.18 1.22 1.36 1.62 1.89 2.15 2.30 2.25 2.23 2.20 2.25 2.33 2.31 2.29 2.34 2.26 1.89 1.85 1.76 1.92 2.69 3.30 3.55 3.09 2.24 1.90
1.77 1.63 1.51 1.47 1.38 1.28 1.22 1.03 0.98 1.06 1.27 1.41 1.52 1.54 1.27 1.10 1.20 1.17 1.22 1.23 1.32 1.46 1.75 2.08 2.21 2.15 2.18 2.26 2.46 2.52 2.47 2.44 2.36 2.07 2.11 2.04 2.19 2.97 3.15 3.24 3.11 2.30 1.97
1.73 1.70 1.57 1.51 1.42 1.19 1.06 0.90 0.92 0.99 1.16 1.17 1.21 1.32 1.36 1.33 1.21 1.25 1.27 1.34 1.38 1.47 1.54 1.68 1.94 1.96 1.96 2.15 2.38 2.44 2.44 2.39 2.31 2.13 2.16 2.27 2.38 2.87 2.77 2.81 2.83 2.29 1.97
1.67 1.55 1.46 1.43 1.36 1.20 1.09 0.98 0.99 1.03 1.12 1.06 0.98 1.02 1.09 1.14 1.14 1.19 1.29 1.48 1.53 1.62 1.58 1.74 1.76 1.71 1.76 1.84 1.88 2.05 2.37 2.59 2.49 2.13 1.98 2.14 2.29 2.62 2.67 2.64 2.45 2.25 2.04
1.56 1.37 1.30 1.34 1.28 1.25 1.11 0.93 0.89 0.89 1.04 1.07 1.10 1.14 1.07 0.94 0.99 1.09 1.31 1.60 1.75 1.77 1.80 1.91 1.89 1.85 1.75 1.74 1.72 1.85 2.27 2.60 2.60 2.34 1.97 2.01 2.15 2.39 2.65 2.54 2.29 2.11 2.10